Погода в Дружбе

Россия / Калининградская область     54°29′24″N   21°11′54″E
темп.,
°C
ветер,
м/с
пор.,
м/с
влажн.,
%
обл.,
%
осадки,
мм/ч
давл.,
гПа
погр.,
м
28 февраля, вс
вс2823:000зсз38940 0.0 1031244
02:00+1з379132 0.0 1031203
05:00+1з4109176 0.0 1030252
08:00+1з4119674 0.0 1029323
11:00+4зсз5991100 0.0 1028659
14:00+5зсз6983100 0.0 1028614
17:00+5сз5108147 0.0 1028605
20:00+3сз4109123 0.0 1029312
1 марта, пн
пн123:00+3сз510901 0.0 1030267
02:00+2сз37931 0.0 1032153
05:00+1сз34930 0.0 103187
08:00+1зсз23920 0.0 103256
11:00+6зсз35760 0.0 1032293
14:00+9з36660 0.0 1032477
17:00+8зюз37716 0.0 1030347
20:00+5зюз39893 0.0 1030246
2 марта, вт
вт223:00+3з412903 0.0 1029395
02:00+2з49948 0.0 1030283
05:00+1з359611 0.0 1029108
08:00+1з23957 0.0 103066
11:00+6з24800 0.0 1031265
14:00+8з35720 0.0 1031474
17:00+7зсз46770 0.0 1030436
20:00+3зсз37964 0.0 1030223
3 марта, ср
ср323:00+4сз249199 0.0 1030313
02:00+3зсз238999 0.0 1030310
05:00+2зсз1287100 0.0 1030112
08:00+1з229099 0.0 1030137
11:00+3юз127983 0.0 1030384
14:00+6ююз226553 0.0 1029512
17:00+7ю23680 0.0 1027318
20:00+4ю23810 0.0 102541
4 марта, чт
чт423:00+3ююз349023 0.0 102479
02:00+2ююз369133 0.0 1021136
05:00+2юз410941 0.0 1018224
08:00+2зюз38958 0.0 1016222
11:00+5з478663 0.0 1014485
14:00+6з578181 0.0 1013679
17:00+6з368195 0.0 1011681
20:00+4з259397 0.1 1010200